Regional Weather Roundup
Issued by NWS Burlington, VT

Home | Current Version | Previous Version | Text Only | Print | Product List | Glossary On
Versions: 1 2 3 4 5 6 7 8 9 10 11 12 13 14 15 16 17 18 19 20 21 22 23 24 25 26 27 28 29 30 31 32 33 34 35 36 37 38 39 40 41 42 43 44 45 46 47 48 49 50
230
ASUS41 KBTV 251330
RWRBTV
VERMONT REGIONAL WEATHER ROUNDUP
NATIONAL WEATHER SERVICE BURLINGTON VT
900 AM EDT THU AUG 25 2016

NOTE: "FAIR" INDICATES FEW OR NO CLOUDS BELOW 12,000 FEET WITH NO
SIGNIFICANT WEATHER AND/OR OBSTRUCTIONS TO VISIBILITY.

* THESE REPORTS ARE NOT UNDER NWS QUALITY CONTROL AND/OR DO NOT
  REPORT WEATHER SUCH AS PRECIPITATION AND FOG.

VTZ001>019-251400-
_____VERMONT_____


CITY           SKY/WX    TMP DP  RH WIND       PRES   REMARKS
BURLINGTON     PTSUNNY   74  60  61 S17G26    29.96F
MONTPELIER     CLOUDY    70  60  70 S9        30.06F
MORRISVILLE    CLOUDY    74  62  66 SW10      30.00F
ST. JOHNSBURY*   N/A     69  60  73 MISG      30.00F
LYNDONVILLE*   FAIR      68  62  80 SE5       30.04F
MIDDLEBURY*    FAIR      74  62  66 S8        30.00F
RUTLAND*       PTSUNNY   72  63  73 VRB5      30.04F
SPRINGFIELD    MOSUNNY   66  61  84 S3        30.07F
HIGHGATE*      CLOUDY    72  63  73 S10       29.94R
NEWPORT*       FAIR      72  63  74 S8        29.99F
BENNINGTON     MOSUNNY   72  63  73 VRB3      30.06F
MT. MANSFIELD*   N/A     63 N/A N/A NW26        N/A

_____LAKE CHAMPLAIN_____


CITY           SKY/WX    TMP DP  RH WIND       PRES   REMARKS
BURTON ISLAND*   N/A     73  64  73 S15         N/A
COLCHESTER RF*   N/A     72  66  83 S26         N/A
DIAMOND ISL*     N/A     70  64  83 S13         N/A

$$

NYZ007-026>031-035-052-083-087-251400-
_____NORTHERN NEW YORK_____


CITY           SKY/WX    TMP DP  RH WIND       PRES   REMARKS
PLATTSBURGH    CLOUDY    70  65  84 SE9       29.95S
SARANAC LAKE   CLOUDY    69  61  75 SW9       30.00F
MASSENA        CLOUDY    76  64  66 SW14      29.91F
OGDENSBURG*    PTSUNNY   75  66  73 SW9       29.91F
POTSDAM*       PTSUNNY   75  70  83 SW10G21   29.93F
WATERTOWN      LGT RAIN  71  67  87 S9G18     29.93S FOG
FT DRUM        LGT RAIN  73  66  78 S13       29.94F
ALBANY         CLOUDY    71  63  75 S12G17    30.04
GLENS FALLS    CLOUDY    70  63  78 S7        30.03F

$$
NHZ002-005-011-251400-
_____NEW HAMPSHIRE_____


CITY           SKY/WX    TMP DP  RH WIND       PRES   REMARKS
LEBANON        CLOUDY    70  62  76 VRB3      30.04F
KEENE          SUNNY     68  63  84 CALM      30.08F
MT WASHINGTON  FOG       54  54 100 W44         N/A  VSB 0
PLYMOUTH       CLOUDY    64  63  97 CALM      30.05F FOG
WHITEFIELD     CLOUDY    66  60  81 CALM      30.03F

$$

_____REGIONAL QUEBEC LOCATIONS_____


CITY           SKY/WX    TMP DP  RH WIND       PRES   REMARKS
MONTREAL       CLOUDY    75  66  73 S18       29.89S
QUEBEC CITY    CLOUDY    70  66  88 W6        29.87F
SHERBROOKE     PTSUNNY   70  63  78 S7        29.95F

_____REGIONAL ONTARIO LOCATIONS_____


CITY           SKY/WX    TMP DP  RH WIND       PRES   REMARKS
OTTAWA         CLOUDY    72  68  88 VRB2      29.89S

______KEY______
VSB  - VISIBILITY IN MILES
WCI  - WIND CHILL INDEX
HX   - HEAT INDEX
$$
NNNN




USA.gov is the U.S. government's official web portal to all federal, state and local government web resources and services.